Chicopee, MA

5:28 PM EST on November 11, 2019 (GMT -0500)
Westover Air Reserve Base / Metropolitan Airport

Weather History for KCEF - October, 2019

Change the Weather History Date:

Sunday, October 20, 2019

  Actual Average Record
Temperature  
Mean Temperature 43 °F -  
Max Temperature 57 °F 57 °F 74 °F (2012)
Min Temperature 29 °F 36 °F 25 °F (2008)
Degree Days  
Heating Degree Days 22    
Moisture  
Dew Point 41 °F    
Average Humidity 88    
Maximum Humidity 100    
Minimum Humidity 53    
Precipitation  
Precipitation 0.08 in - - ()
Sea Level Pressure  
Sea Level Pressure 30.07 in    
Wind  
Wind Speed 1 mph ()    
Max Wind Speed 6 mph    
Max Gust Speed -    
Visibility 9.2 miles    
Events Fog , Rain    
Averages and records for this station are not official NWS values.
T = Trace of Precipitation, MM = Missing Value Source: Averaged Metar Reports

Daily Weather History Graph

Daily Weather History Graph

Search for Another Location

Airport or City:

Astronomy

Oct. 20, 2019 Rise Set
Actual Time 7:08 AM EDT 6:00 PM EDT
Civil Twilight 6:39 AM EDT 6:29 PM EDT
Nautical Twilight 6:07 AM EDT 7:01 PM EDT
Astronomical Twilight 5:34 AM EDT 7:34 PM EDT
Moon 11:02 PM EDT (10/20) 1:38 PM EDT (10/20)
Length of Visible Light 11h 49m
Length of Day
10h 52m
Waning Gibbous, 59% of the Moon is Illuminated
Oct 20
Waning Gibbous
Oct 21
Last Quarter
Oct 27
New
Nov 4
First Quarter
Nov 12
Full

Hourly Weather History & Observations

Time (EDT) Temp. Windchill Dew Point Humidity Pressure Visibility Wind Dir Wind Speed Gust Speed Precip Events Conditions
12:56 AM 33.3 °F - 32.0 °F 95% 30.07 in 10.0 mi Calm Calm - N/A   Clear
1:56 AM 32.5 °F - 31.5 °F 96% 30.07 in 10.0 mi Calm Calm - N/A   Clear
2:56 AM 32.2 °F - 31.1 °F 96% 30.08 in 9.0 mi Calm Calm - N/A   Clear
3:07 AM 30.2 °F 25.4 °F 28.4 °F 93% 30.09 in 1.0 mi NE 4.6 mph - N/A   Clear
3:11 AM 30.2 °F 26.7 °F 30.2 °F 100% 30.08 in 1.1 mi NNE 3.5 mph - N/A   Clear
3:26 AM 32.0 °F 28.7 °F 30.2 °F 93% 30.08 in 10.0 mi NNE 3.5 mph - N/A   Clear
3:56 AM 31.1 °F - 30.4 °F 97% 30.07 in 6.0 mi Calm Calm - N/A   Clear
4:56 AM 31.1 °F 27.7 °F 30.4 °F 97% 30.07 in 10.0 mi NE 3.5 mph - N/A   Clear
5:56 AM 29.1 °F 23.0 °F 28.0 °F 96% 30.08 in 4.0 mi NE 5.8 mph - N/A   Clear
6:56 AM 30.2 °F - 29.5 °F 97% 30.08 in 10.0 mi Calm Calm - N/A Fog Shallow Fog
7:56 AM 32.5 °F - 31.8 °F 97% 30.09 in 10.0 mi Calm Calm - N/A   Mostly Cloudy
8:56 AM 38.5 °F 36.1 °F 37.8 °F 97% 30.11 in 10.0 mi NNE 3.5 mph - N/A   Mostly Cloudy
9:56 AM 44.4 °F - 38.3 °F 79% 30.12 in 10.0 mi Calm Calm - N/A   Mostly Cloudy
10:56 AM 50.7 °F - 37.4 °F 60% 30.10 in 10.0 mi Calm Calm - N/A   Mostly Cloudy
11:57 AM 54.9 °F - 38.1 °F 53% 30.09 in 10.0 mi NNW 3.5 mph - N/A   Mostly Cloudy
12:56 PM 56.8 °F - 40.3 °F 54% 30.09 in 10.0 mi West 5.8 mph - N/A   Overcast
1:56 PM 56.8 °F - 40.3 °F 54% 30.07 in 10.0 mi Calm Calm - N/A   Overcast
2:56 PM 57.2 °F - 43.0 °F 59% 30.07 in 10.0 mi SSW 4.6 mph - N/A   Overcast
3:12 PM 57.2 °F - 42.8 °F 59% 30.07 in 10.0 mi WSW 4.6 mph - N/A Rain Light Rain
3:44 PM 57.2 °F - 44.6 °F 63% 30.07 in 10.0 mi Calm Calm - N/A   Overcast
3:56 PM 56.3 °F - 44.6 °F 65% 30.07 in 10.0 mi Calm Calm - 0.00 in Rain Light Rain
4:56 PM 54.1 °F - 48.7 °F 82% 30.06 in 10.0 mi NE 4.6 mph - 0.00 in Rain Light Rain
5:57 PM 52.2 °F - 50.2 °F 93% 30.06 in 10.0 mi Calm Calm - 0.02 in Rain Light Rain
6:56 PM 50.7 °F - 50.2 °F 98% 30.06 in 10.0 mi NE 3.5 mph - 0.01 in Rain Light Rain
7:56 PM 50.9 °F - 50.5 °F 99% 30.06 in 10.0 mi Calm Calm - 0.01 in Rain Light Rain
8:40 PM 50.0 °F - 50.0 °F 100% 30.06 in 10.0 mi East 3.5 mph - N/A   Overcast
8:56 PM 50.9 °F - 49.3 °F 94% 30.06 in 10.0 mi Calm Calm - 0.02 in   Overcast
9:13 PM 50.0 °F - 50.0 °F 100% 30.06 in 10.0 mi Calm Calm - N/A Rain Light Rain
9:48 PM 50.0 °F - 50.0 °F 100% 30.06 in 10.0 mi Calm Calm - N/A   Overcast
9:56 PM 50.5 °F - 50.0 °F 98% 30.06 in 10.0 mi Calm Calm - 0.02 in   Overcast
10:19 PM 50.0 °F - 50.0 °F 100% 30.06 in 10.0 mi Calm Calm - N/A   Light Drizzle
10:37 PM 51.8 °F - 50.0 °F 94% 30.06 in 10.0 mi NW 4.6 mph - N/A   Overcast
10:56 PM 50.7 °F - 49.8 °F 97% 30.06 in 10.0 mi Calm Calm - N/A   Overcast
11:06 PM 50.0 °F - 50.0 °F 100% 30.06 in 10.0 mi Calm Calm - N/A   Light Drizzle
11:19 PM 50.0 °F - 50.0 °F 100% 30.06 in 10.0 mi Calm Calm - N/A   Overcast
11:56 PM 50.2 °F - 49.8 °F 99% 30.05 in 10.0 mi Calm Calm - 0.00 in   Overcast